Notices

What’s New in latest Release from January 14th 2021:

·       In Historical Hourly Data Report, users can switch between Local Standard Time (LST) and Universal Time Coordinates (UTC) time.

·       In Historical Hourly Data Report, we have an addition of a new column to display hourly precipitation data for the stations where the data are available, from 2001 onwards.

·       Expanded the Search Options of the Canadian Historical Weather Radar, users now able to select 24 hours (1 image every hour) image viewing duration.

Please note that the IDF dataset is available through this link: Intensity-Duration-Frequency (IDF) Files .

Hourly Data Report for October 03, 2019

CORAL HARBOUR A
NUNAVUT
Current Station Operator: NAVCAN

64°11'36.000" N
83°21'34.000" W
62.20 m
2301002
71915
YZS

Download Data

Hourly Data (October 2019)
Hourly Data Report for October 3, 2019
TIME
LST
Temp Definition
°C
Dew Point Definition
°C
Rel Hum Definition
%
Precip. Amount Definition
mm

Wind Dir Definition
10's deg

Wind Spd Definition
km/h
Visibility Definition
km
Stn Press Definition
kPa
Hmdx Definition


Wind Chill Definition


Weather Definition


00:00 0.2 -1.2 90   31 9 24.1 100.33     LegendNANA
01:00 0.0 -1.4 90   31 9 24.1 100.34   -3 Cloudy
02:00 -0.7 -1.9 92   28 13 24.1 100.36   -5 LegendNANA
03:00 -1.5 -2.2 95   28 12 24.1 100.36   -6 LegendNANA
04:00 -1.9 -2.4 96   31 14 24.1 100.38   -7 Cloudy
05:00 -2.2 -3.0 94   34 8 24.1 100.39   -5 LegendNANA
06:00 -1.7 -2.7 93   34 6 24.1 100.37   -4 LegendNANA
07:00 -1.4 -2.5 92   0 1 24.1 100.36   -2 Mostly Cloudy
08:00 -1.3 -2.4 93   36 1 24.1 100.37   -2 LegendNANA
09:00 -1.4 -1.9 96   36 1 19.3 100.38   -2 LegendNANA
10:00 -1.1 -1.4 98   36 2 1.6 100.37   -2 Snow Grains,Fog
11:00 -0.8 -1.0 98   32 9 9.7 100.35   -4 Fog
12:00 -0.1 -0.7 96   31 7 24.1 100.40   -3 Snow
13:00 0.6 -0.6 91   32 6 24.1 100.43     Snow
14:00 0.2 -0.7 93   16 6 24.1 100.45     Snow
15:00 0.7 -0.4 93   36 1 24.1 100.51     Snow
16:00 1.6 -0.8 84   33 14 24.1 100.53     Mostly Cloudy
17:00 1.5 -1.5 81   34 25 24.1 100.56     LegendNANA
18:00 -0.1 -2.1 86   1 19 24.1 100.61   -5 LegendNANA
19:00 -0.7 -2.3 89   35 11 24.1 100.69   -4 Mainly Clear
20:00 -1.0 -2.7 89   34 21 24.1 100.70   -7 LegendNANA
21:00 -1.6 -3.1 89   33 16 24.1 100.76   -7 LegendNANA
22:00 -2.8 -4.0 92   35 12 24.1 100.76   -7 Mainly Clear
23:00 -3.1 -4.5 90   34 18 24.1 100.77   -9 LegendNANA

Notes on Data Quality.

Legend

  • E = Estimated
  • M = Missing
  • NA = Not Available*
  • [empty] = Indicates an unobserved value
Date modified: